Flag Weather past 2 weeks in Odessa, Texas, U.S.A.

Now
49 °F

Clear.


Feels Like: 45 °F
Forecast: 47 / 68 °F
Wind: 10 mph from West

Location: Odessa-Schlemeyer Field

Current Time: Nov 23, 2014 at 2:51:37 AM

Latest Report: Nov 23, 2014 at 1:53 AM


Visibility: 10 mi

Pressure: 29.63 "Hg

Humidity: 57%

Dew point: 34 °F

Location of OdessaLocation

Historic Weather in Odessa — Graph

°F

Odessa temperature yesterday

Maximum temperature yesterday: 70 °F (at 3:53 PM)
Minimum temperature yesterday: 53 °F (at 10:53 PM)
Average temperature yesterday: 60 °F

Past Weeks' High & Low Weather Summary

 TemperatureHumidityPressure
High81 °F (Nov 10, 2:53 PM)97% (Nov 21, 9:53 AM)30.58 "Hg (Nov 21, 9:53 AM)
Low20 °F (Nov 17, 5:53 AM)11% (Nov 19, 3:53 PM)29.58 "Hg (Nov 10, 4:53 PM)
Average46 °F54%30.09 "Hg
* Reported Nov 8 1:53 AM — Nov 23 1:53 AM, Odessa, Weather by CustomWeather, © 2014

Note: Actual official high and low records may vary slightly from our data, if they occured in-between our weather recording intervals... More about our weather records

Advertising

Odessa weather history for previous 24 hours

 ConditionsComfort  
Time TempWeatherWind HumidityBarometerVisibility
1:53 AM
Nov 23
49 °FClear.10 mph57%29.63 "Hg10 mi
12:53 AM51 °FClear.10 mph50%29.66 "Hg10 mi
11:53 PM
Nov 22
53 °FClear.10 mph47%29.70 "Hg10 mi
10:53 PM53 °FClear.9 mph48%29.71 "Hg10 mi
9:53 PM55 °FClear.9 mph47%29.73 "Hg10 mi
8:53 PM54 °FClear.5 mph51%29.73 "Hg10 mi
7:53 PM58 °FClear.5 mph44%29.72 "Hg10 mi
6:53 PM63 °FClear.6 mph45%29.72 "Hg10 mi
5:53 PM64 °FClear.3 mph63%29.71 "Hg10 mi
4:53 PM69 °FPartly sunny.5 mph55%29.70 "Hg10 mi
3:53 PM70 °FMild.7 mph49%29.70 "Hg10 mi
2:53 PM69 °FSunny.10 mph53%29.71 "Hg10 mi
1:53 PM68 °FPassing clouds.9 mph55%29.74 "Hg10 mi
1:02 PM67 °FMostly cloudy.13 mph59%29.87 "Hg10 mi
12:53 PM67 °FMostly cloudy.13 mph59%29.79 "Hg10 mi
11:53 AM66 °FScattered clouds.10 mph65%29.81 "Hg10 mi
10:53 AM63 °FScattered clouds.9 mph75%29.86 "Hg8 mi
9:53 AM59 °FFog.5 mph87%29.88 "Hg5 mi
8:53 AM56 °FThundershowers. Fog.7 mph90%29.89 "Hg5 mi
7:53 AM56 °FFog.3 mph90%29.89 "Hg5 mi
6:53 AM55 °FFog.9 mph93%29.86 "Hg6 mi
5:53 AM56 °FMostly cloudy.8 mph90%29.87 "Hg8 mi
4:53 AM57 °FFog.7 mph90%29.86 "Hg6 mi
3:53 AM56 °FFog.7 mph93%29.87 "Hg6 mi
2:53 AM57 °FOvercast.5 mph90%29.88 "Hg7 mi
Weather by CustomWeather, © 2014

See weather overviewHow to use our weather pages